TimePDT,TemperatureF,Dew PointF,Humidity,Sea Level PressureIn,VisibilityMPH,Wind Direction,Wind SpeedMPH,Gust SpeedMPH,PrecipitationIn,Events,Conditions,WindDirDegrees,DateUTC
12:53 AM,57.0,35.1,44,30.06,10.0,Calm,Calm,-,N/A,,Clear,0,2013-10-17 07:53:00
1:53 AM,53.1,33.1,47,30.06,10.0,East,3.5,-,N/A,,Clear,80,2013-10-17 08:53:00
2:53 AM,52.0,33.1,49,30.06,10.0,Calm,Calm,-,N/A,,Clear,0,2013-10-17 09:53:00
3:53 AM,50.0,32.0,50,30.05,10.0,ENE,3.5,-,N/A,,Clear,70,2013-10-17 10:53:00
4:53 AM,51.1,33.1,50,30.05,10.0,Calm,Calm,-,N/A,,Clear,0,2013-10-17 11:53:00
5:53 AM,50.0,33.1,52,30.06,10.0,Calm,Calm,-,N/A,,Clear,0,2013-10-17 12:53:00
6:53 AM,50.0,33.1,52,30.06,10.0,Calm,Calm,-,N/A,,Clear,0,2013-10-17 13:53:00
7:53 AM,50.0,37.0,61,30.07,10.0,Calm,Calm,-,N/A,,Clear,0,2013-10-17 14:53:00
8:53 AM,55.9,37.0,49,30.09,10.0,Calm,Calm,-,N/A,,Clear,0,2013-10-17 15:53:00
9:53 AM,61.0,37.9,42,30.08,10.0,Calm,Calm,-,N/A,,Clear,0,2013-10-17 16:53:00
10:53 AM,69.1,35.1,29,30.07,10.0,Calm,Calm,-,N/A,,Clear,0,2013-10-17 17:53:00
11:53 AM,77.0,34.0,21,30.06,10.0,Variable,3.5,-,N/A,,Clear,0,2013-10-17 18:53:00
12:53 PM,79.0,30.0,17,30.03,10.0,SSW,4.6,-,N/A,,Clear,210,2013-10-17 19:53:00
1:53 PM,82.9,30.9,15,30.00,10.0,WSW,8.1,-,N/A,,Clear,250,2013-10-17 20:53:00
2:53 PM,84.9,30.0,14,29.97,10.0,WNW,8.1,-,N/A,,Clear,290,2013-10-17 21:53:00
3:53 PM,84.0,30.9,15,29.96,10.0,West,6.9,-,N/A,,Clear,280,2013-10-17 22:53:00
4:53 PM,82.9,30.9,15,29.95,10.0,WSW,9.2,-,N/A,,Clear,250,2013-10-17 23:53:00
5:53 PM,79.0,30.9,17,29.95,10.0,West,8.1,-,N/A,,Clear,260,2013-10-18 00:53:00
6:53 PM,72.0,32.0,23,29.96,10.0,West,5.8,-,N/A,,Clear,280,2013-10-18 01:53:00
7:53 PM,71.1,33.1,25,29.97,10.0,Calm,Calm,-,N/A,,Clear,0,2013-10-18 02:53:00
8:53 PM,64.9,34.0,32,29.98,10.0,Calm,Calm,-,N/A,,Clear,0,2013-10-18 03:53:00
9:53 PM,62.1,35.1,37,29.99,10.0,Calm,Calm,-,N/A,,Clear,0,2013-10-18 04:53:00
10:53 PM,57.9,30.9,36,29.99,10.0,Calm,Calm,-,N/A,,Clear,0,2013-10-18 05:53:00
11:53 PM,54.0,30.0,40,29.99,10.0,East,3.5,-,N/A,,Clear,80,2013-10-18 06:53:00